Regional Weather Roundup
Issued by NWS

Home | Current Version | Previous Version | Text Only | Print | Product List | Glossary Off
Versions: 1 2 3 4 5 6 7 8 9 10 11 12 13 14 15 16 17 18 19 20 21 22 23 24 25 26 27 28 29 30 31 32 33 34 35 36 37 38 39 40 41 42 43 44 45 46 47 48 49 50

000
ASUS43 KLOT 291722
RWRIL

ILLINOIS REGIONAL WEATHER ROUNDUP
NATIONAL WEATHER SERVICE CHICAGO/ROMEOVILLE IL
1200 PM CDT FRI MAY 29 2015

NOTE: "FAIR" INDICATES FEW OR NO CLOUDS BELOW 12,000 FEET WITH NO
SIGNIFICANT WEATHER AND/OR OBSTRUCTIONS TO VISIBILITY.

* THESE STATIONS ARE NOT UNDER NWS QUALITY CONTROL. THEY ALSO MAY NOT
  REPORT WEATHER SUCH AS PRECIPITATION OR FOG.

ILZ001-002-007-009-015-016-024-291800-
NORTHWEST ILLINOIS

CITY           SKY/WX    TMP DP  RH WIND       PRES   REMARKS
MOLINE         PTSUNNY   73  66  78 S9        29.95F
STERLING*      CLOUDY    77  66  69 S6        29.96F
SAVANNA*       CLOUDY    71  67  89 S8        29.96S
$$

ILZ003-004-008-010-011-017-018-291800-
NORTH CENTRAL ILLINOIS

CITY           SKY/WX    TMP DP  RH WIND       PRES   REMARKS
ROCKFORD       CLOUDY    76  67  73 S13       29.99F
FREEPORT*      PTSUNNY   72  67  85 S10       29.99F
ROCHELLE*      CLOUDY    78  65  65 S16       29.99F
DE KALB*       PTSUNNY   76  65  69 S13G22    30.00F
PERU*          PTSUNNY   78  63  59 SW15      29.99F HX  80
$$

ILZ005-006-012>014-019>023-291800-
NORTHEAST ILLINOIS

CITY           SKY/WX    TMP DP  RH WIND       PRES   REMARKS
CHICAGO-OHARE  LGT RAIN  71  66  84 S9        30.02R
CHICAGO-MIDWAY LGT RAIN  72  67  84 SW12G24   30.03R FOG
AURORA         PTSUNNY   78  66  66 S15G22    30.01F HX  80
LANSING*       HVY RAIN  73  65  75 SW14      30.03S
JOLIET*        CLOUDY    75  69  83 SW7       30.02F
WAUKEGAN       CLOUDY    73  64  73 SE7       29.99F
DUPAGE AIRPORT CLOUDY    75  68  78 S14       30.01F
KANKAKEE*      CLOUDY    80  67  64 S21       30.04F HX  82
WHEELING       RAIN      74  66  76 SW14G26   30.03R
MORRIS*        PTSUNNY   77  70  77 S13       30.00F
ROMEOVILLE*    CLOUDY    72  67  83 S13       30.02F
NORTHERLY ISL    N/A     76  63  64 S14         N/A
$$

LMZ740>746-291800-
SOUTHERN LAKE MICHIGAN

STATION/POSITION SKY/WX   TEMP    WIND        PRES    VSBY  WAVE
                          AIR SEA DIR/SP/G                  HT/PER
                          (F)     (DEG/KT/KT) (MB)    (MI)  (FT/S)
SOUTHERN BUOY              47 38  170/ 10/ 10 1017.3F         1
HARRISON CRIB              74     200/ 20/ 25   N/A
BURNHAM HARBOR             75     200/  6/ 19   N/A
CALUMET HARBOR             79     170/ 12/ 14   N/A
BURNS HARBOR               78     210/ 14/ 19 1017.6F
MICHIGAN CITY              79     170/ 11/ 14   N/A
MICHIGAN CITY 6N           71 56  210/  8/ 10   N/A           1
ST. JOSEPH                 70 58  180/  4/  6   N/A           0
$$

ILZ025>027-034>036-040-047-049-050-058-095>099-291800-
WEST-CENTRAL ILLINOIS

CITY           SKY/WX    TMP DP  RH WIND       PRES   REMARKS
QUINCY         PTSUNNY   77  67  71 SW9       30.00F
GALESBURG*     CLOUDY    71  65  82 S13       29.99S
MACOMB*        PTSUNNY   74  66  76 SW13      30.02F
JACKSONVILLE*  PTSUNNY   82  68  64 SW12      30.02S HX  84
PITTSFIELD*    PTSUNNY   79  68  70 SW9       30.03S HX  81
$$

ILZ028>032-037-038-041>044-048-051>054-059>061-291800-
CENTRAL ILLINOIS

CITY           SKY/WX    TMP DP  RH WIND       PRES   REMARKS
PONTIAC        PTSUNNY   81  70  70 S15G21    30.02F HX  84
BLOOMINGTON    PTSUNNY   78  69  73 S15       30.04F HX  80
DECATUR        PTSUNNY   79  66  64 S14G21    30.05F HX  81
PEORIA         PTSUNNY   80  67  64 S16G22    30.00F HX  82
LACON*         PTSUNNY   76  66  69 S13G18    29.98F
LINCOLN*       PTSUNNY   81  67  62 SW7       30.00F HX  83
SPRINGFIELD    PTSUNNY   82  69  64 SW12      30.02F HX  85
TAYLORVILLE    PTSUNNY   77  68  73 S13       30.05S
$$

ILZ033-039-045-046-055>057-062-063-291800-
EAST-CENTRAL ILLINOIS

CITY           SKY/WX    TMP DP  RH WIND       PRES   REMARKS
CHAMPAIGN      PTSUNNY   81  64  56 S18G26    30.06F HX  82
DANVILLE*      CLOUDY    78  65  64 SW10      30.05F HX  80
RANTOUL*       CLOUDY    82  67  60 S16G23    30.06F HX  84
PARIS*         CLOUDY    81  64  56 S13       30.08F HX  83
$$

ILZ079-100>102-291800-
SOUTHWEST ILLINOIS

CITY           SKY/WX    TMP DP  RH WIND       PRES   REMARKS
ALTON          PTSUNNY   81  73  78 SW7       30.04F HX  85
BELLEVILLE     MOSUNNY   77  73  88 S10       30.04F
CAHOKIA*       PTSUNNY   83  68  60 S8        30.03F HX  86
SPARTA*        PTSUNNY   78  69  75 S8        30.07S
$$

ILZ064>066-069>071-074>076-080>082-084>086-088>090-092>094-291800-
SOUTH-CENTRAL ILLINOIS

CITY           SKY/WX    TMP DP  RH WIND       PRES   REMARKS
CARBONDALE     PTSUNNY   82  68  62 S13       30.07F HX  85
CAIRO*         MOSUNNY   80  69  69 S9        30.09F HX  83
EFFINGHAM*     PTSUNNY   80  62  53 S6        30.09F HX  82
MARION         PTSUNNY   81  70  69 MISG      30.09F HX  84
MT. VERNON     PTSUNNY   84  68  58 S12       30.08F HX  87
CENTRALIA*     MOSUNNY   84  65  53 S15       30.07F HX  86
SALEM*         MOSUNNY   83  66  56 S12G18    30.08S HX  85
METROPOLIS*    MOSUNNY   79  71  74 S8        30.10F HX  82
$$

ILZ067-068-072-073-078-083-087-091-291800-
SOUTHEAST ILLINOIS

CITY           SKY/WX    TMP DP  RH WIND       PRES   REMARKS
LAWRENCEVILLE  PTSUNNY   82  67  60 S12       30.10F HX  84
FLORA*         SUNNY     81  66  60 S12G17    30.08F HX  83
FAIRFIELD*     PTSUNNY   81  67  62 S12       30.07F HX  84
HARRISBURG*    MOSUNNY   79  66  64 S9        30.10F HX  81
ROBINSON*      MOSUNNY   82  66  57 S13G18    30.10F HX  84
CARMI*         MOSUNNY   81  63  54 S10       30.09F HX  82
$$

ABBREVIATIONS USED IN REMARKS
   TC - TEMPERATURE IN CELSIUS
  WCI - WIND CHILL INDEX
   HX - HEAT INDEX
  VSB - VISIBILITY
$$



USA.gov is the U.S. government's official web portal to all federal, state and local government web resources and services.